This is the latest recevied weather packets stored in our database for station/object N9BID. If no packets are shown the sender has not sent any weather packets the latest 10 day(s).
| Time | Temp. | Humidity | Pressure | Rain* | Wind** | Luminosity | Snow |
|---|---|---|---|---|---|---|---|
| 1777910694 | 17.78° C | 53% | 987.8 hPa | 0 mm | - | 636 W/m² | - |
| 1777910390 | 17.78° C | 52% | 988 hPa | 0 mm | - | 485 W/m² | - |
| 1777910087 | 17.78° C | 53% | 987.7 hPa | 0 mm | - | 528 W/m² | - |
| 1777909785 | 17.78° C | 53% | 987.9 hPa | 0 mm | - | 656 W/m² | - |
| 1777909481 | 17.78° C | 53% | 988 hPa | 0 mm | - | 626 W/m² | - |
| 1777909179 | 17.78° C | 53% | 987.9 hPa | 0 mm | - | 549 W/m² | - |
| 1777908877 | 17.78° C | 52% | 988 hPa | 0 mm | - | 514 W/m² | - |
| 1777908574 | 17.78° C | 53% | 987.8 hPa | 0 mm | - | 644 W/m² | - |
| 1777908270 | 17.78° C | 51% | 987.7 hPa | 0 mm | - | 606 W/m² | - |
| 1777907967 | 17.78° C | 53% | 987.7 hPa | 0 mm | - | 414 W/m² | - |
| 1777907662 | 17.78° C | 51% | 987.9 hPa | 0 mm | - | 574 W/m² | - |
| 1777907358 | 17.78° C | 52% | 987.6 hPa | 0 mm | - | 345 W/m² | - |
| 1777907055 | 17.78° C | 53% | 987.6 hPa | 0 mm | - | 513 W/m² | - |
| 1777906752 | 17.78° C | 52% | 987.6 hPa | 0 mm | - | 491 W/m² | - |
| 1777906449 | 18.33° C | 51% | 987.4 hPa | 0 mm | - | 554 W/m² | - |
| 1777906146 | 17.78° C | 51% | 987.6 hPa | 0 mm | - | 542 W/m² | - |
| 1777905842 | 17.78° C | 52% | 987.7 hPa | 0 mm | - | 507 W/m² | - |
| 1777905539 | 17.78° C | 51% | 987.8 hPa | 0 mm | - | 543 W/m² | - |
| 1777905235 | 17.78° C | 50% | 987.6 hPa | 0 mm | - | 487 W/m² | - |
| 1777904933 | 17.78° C | 50% | 987.7 hPa | 0 mm | - | 429 W/m² | - |
| 1777904630 | 17.78° C | 51% | 987.7 hPa | 0 mm | - | 432 W/m² | - |
| 1777904327 | 17.78° C | 50% | 987.8 hPa | 0 mm | - | 421 W/m² | - |
| 1777904024 | 17.78° C | 51% | 987.7 hPa | 0 mm | - | 393 W/m² | - |
| 1777903721 | 17.22° C | 50% | 987.6 hPa | 0 mm | - | 243 W/m² | - |
| 1777903417 | 16.11° C | 54% | 987.5 hPa | 0 mm | - | 339 W/m² | - |
* Rain latest hour (hover to see other rain measurements)
** Current wind speed in m/s (hover to see current wind gust speed)